Total_Precipitation_Accumulation
0.51 0.51 0.52 0.54 0.55 0.56 0.57 0.57 0.63 0.71 0.83 1.03 1.32 1.71 1.93 2.05 2.05 2.06 1.95 1.73 1.51 1.52 1.70 1.67 1.64 1.66 1.66 1.63 1.58 1.73 1.67 1.42 1.34 1.55 1.53 1.37 1.20 1.15 1.12 1.17 1.39 1.53 1.47
0.45 0.41 0.39 0.39 0.40 0.40 0.43 0.55 0.57 0.66 0.79 1.06 1.33 1.64 1.98 2.05 2.05 2.05 2.02 1.89 1.75 1.75 1.79 2.00 2.11 2.08 2.21 2.18 2.01 2.16 2.19 1.82 1.57 1.85 2.18 1.90 1.67 1.26 1.15 1.25 1.32 1.44 1.55
0.41 0.38 0.36 0.33 0.32 0.28 0.27 0.40 0.51 0.65 0.92 1.24 1.52 1.69 1.95 2.03 2.07 2.03 2.04 2.06 2.00 1.91 1.92 2.04 2.21 2.23 2.31 2.43 2.51 2.46 2.57 2.38 1.97 1.83 2.14 2.09 1.95 1.72 1.32 1.26 1.37 1.54 1.62
0.37 0.36 0.38 0.34 0.28 0.23 0.21 0.28 0.38 0.61 0.98 1.33 1.56 1.80 2.16 2.21 2.12 2.13 2.12 2.12 2.13 2.09 2.17 2.19 2.30 2.33 2.35 2.46 2.56 2.53 2.68 2.76 2.37 2.06 1.85 1.69 1.72 1.84 1.62 1.40 1.36 1.54 1.59
0.32 0.30 0.30 0.30 0.29 0.28 0.28 0.33 0.47 0.69 0.98 1.22 1.48 1.84 2.09 2.18 2.27 2.16 2.12 2.12 2.18 2.20 2.24 2.31 2.47 2.46 2.45 2.43 2.64 2.70 2.80 2.72 2.64 2.49 2.32 2.16 1.92 1.57 1.67 1.73 1.58 1.47 1.38
0.31 0.32 0.31 0.30 0.32 0.34 0.39 0.50 0.66 0.79 1.01 1.22 1.45 1.64 1.87 2.00 2.12 2.18 2.10 2.08 2.14 2.24 2.13 2.05 2.19 2.26 2.30 2.29 2.48 2.66 2.80 2.79 2.80 2.72 2.43 2.39 2.26 1.90 1.84 1.72 1.62 1.64 1.44
0.38 0.41 0.42 0.47 0.54 0.58 0.61 0.70 0.80 0.92 1.04 1.16 1.27 1.35 1.50 1.65 1.68 1.83 1.90 2.01 2.01 2.07 2.11 1.99 1.98 2.01 1.96 2.01 2.13 2.20 2.28 2.43 2.59 2.51 2.30 2.26 2.09 2.06 2.08 1.99 1.77 1.61 1.39
0.55 0.66 0.72 0.79 0.87 0.87 0.87 0.94 0.99 0.99 1.01 1.08 1.14 1.17 1.22 1.30 1.37 1.40 1.42 1.57 1.71 1.76 1.85 1.84 1.78 1.82 1.86 1.87 1.97 1.99 1.99 2.02 2.10 2.09 2.19 2.25 2.11 2.03 1.97 2.02 2.18 1.95 1.71
0.82 0.92 1.02 1.03 1.02 1.00 0.96 0.99 1.00 0.98 0.97 1.01 1.03 0.97 0.94 1.00 1.11 1.14 1.20 1.24 1.32 1.32 1.39 1.48 1.55 1.64 1.69 1.75 1.90 1.99 1.98 1.94 1.91 2.00 2.07 2.03 2.02 2.00 1.90 1.88 2.05 2.15 2.00
1.17 1.28 1.37 1.30 1.20 1.21 1.25 1.14 1.04 0.96 0.92 0.93 0.96 0.88 0.84 0.90 0.94 0.93 0.98 0.98 0.99 1.01 1.06 1.16 1.32 1.55 1.67 1.70 1.78 1.84 1.93 1.96 1.92 2.01 2.11 2.13 2.13 2.14 2.08 1.96 1.95 1.91 1.96
1.56 1.66 1.67 1.57 1.38 1.26 1.25 1.18 1.05 0.92 0.81 0.79 0.86 0.87 0.81 0.83 0.88 0.86 0.80 0.76 0.80 0.86 0.97 1.01 1.16 1.31 1.49 1.67 1.81 1.83 1.83 1.87 1.86 1.80 1.90 2.03 2.12 2.23 2.25 2.24 2.13 1.99 1.95
1.46 1.50 1.46 1.44 1.32 1.23 1.14 1.10 0.98 0.81 0.75 0.79 0.81 0.83 0.76 0.70 0.75 0.76 0.80 0.70 0.67 0.69 0.77 0.90 1.10 1.22 1.30 1.34 1.43 1.51 1.55 1.60 1.66 1.65 1.61 1.69 1.79 1.95 2.10 2.20 2.14 2.13 2.03
1.15 1.24 1.29 1.18 1.12 1.05 1.00 1.09 1.10 0.96 0.92 0.94 0.99 0.92 0.78 0.72 0.73 0.72 0.78 0.71 0.66 0.68 0.71 0.84 0.99 1.05 1.10 1.14 1.16 1.26 1.35 1.37 1.36 1.42 1.39 1.40 1.49 1.63 1.78 1.87 1.96 2.07 2.10
0.97 1.00 1.06 1.02 1.03 0.97 0.92 1.05 1.10 1.09 1.14 1.19 1.15 0.99 0.86 0.78 0.73 0.70 0.72 0.70 0.70 0.72 0.75 0.89 0.97 0.98 0.94 1.03 1.07 1.12 1.16 1.13 1.08 1.11 1.12 1.17 1.22 1.31 1.44 1.58 1.80 1.99 2.10
0.78 0.73 0.71 0.72 0.78 0.77 0.72 0.79 0.89 0.98 1.10 1.15 1.05 0.92 0.81 0.71 0.66 0.69 0.66 0.68 0.75 0.74 0.76 0.81 0.91 0.94 0.92 0.96 1.03 1.02 0.97 0.96 0.96 0.91 0.81 0.83 0.92 0.94 1.03 1.07 1.36 1.62 1.85
0.53 0.51 0.47 0.47 0.52 0.47 0.48 0.52 0.63 0.80 0.97 1.06 0.94 0.79 0.71 0.69 0.63 0.60 0.57 0.56 0.59 0.62 0.65 0.69 0.84 0.94 0.84 0.96 0.96 0.88 0.81 0.79 0.84 0.80 0.73 0.71 0.75 0.67 0.64 0.68 0.91 1.20 1.40
0.42 0.42 0.42 0.41 0.44 0.40 0.41 0.49 0.56 0.71 0.79 0.81 0.75 0.63 0.58 0.54 0.51 0.49 0.49 0.51 0.52 0.54 0.59 0.62 0.76 0.86 0.93 0.88 0.73 0.77 0.76 0.77 0.81 0.83 0.85 0.77 0.72 0.80 0.71 0.65 0.72 0.80 0.92
0.36 0.38 0.39 0.39 0.44 0.48 0.50 0.59 0.64 0.65 0.67 0.71 0.70 0.60 0.53 0.48 0.46 0.44 0.45 0.52 0.52 0.51 0.56 0.59 0.62 0.69 0.83 0.77 0.62 0.67 0.66 0.77 0.85 0.89 0.97 0.98 0.92 0.89 0.96 0.90 0.91 0.88 0.80
0.22 0.22 0.24 0.26 0.30 0.35 0.40 0.42 0.43 0.46 0.47 0.49 0.54 0.49 0.41 0.43 0.46 0.45 0.49 0.52 0.53 0.55 0.57 0.59 0.61 0.66 0.70 0.68 0.61 0.64 0.70 0.83 0.85 0.81 0.93 0.97 0.92 0.97 1.02 1.13 1.19 1.12 0.96
0.12 0.11 0.12 0.13 0.15 0.19 0.28 0.31 0.30 0.26 0.25 0.27 0.32 0.34 0.32 0.34 0.41 0.52 0.58 0.54 0.50 0.55 0.56 0.54 0.53 0.56 0.57 0.63 0.54 0.66 0.77 0.82 0.84 0.85 0.91 1.05 0.98 0.95 0.91 0.99 1.14 1.14 1.01
0.11 0.10 0.09 0.10 0.13 0.18 0.20 0.22 0.27 0.23 0.20 0.21 0.22 0.24 0.26 0.30 0.38 0.45 0.44 0.43 0.44 0.47 0.48 0.51 0.50 0.50 0.57 0.67 0.68 0.73 0.75 0.80 0.87 0.96 1.01 0.98 1.07 0.91 0.86 0.87 0.89 0.98 0.97
0.08 0.09 0.09 0.12 0.14 0.14 0.14 0.16 0.18 0.18 0.18 0.17 0.18 0.19 0.19 0.20 0.24 0.31 0.35 0.36 0.37 0.38 0.37 0.39 0.39 0.42 0.54 0.62 0.63 0.65 0.70 0.78 0.78 0.84 0.85 0.82 0.91 0.76 0.67 0.63 0.69 0.77 0.82
0.06 0.07 0.11 0.14 0.15 0.15 0.13 0.13 0.15 0.18 0.20 0.18 0.16 0.16 0.18 0.19 0.20 0.26 0.29 0.33 0.36 0.37 0.34 0.32 0.34 0.38 0.42 0.50 0.52 0.51 0.51 0.54 0.57 0.56 0.66 0.69 0.66 0.61 0.54 0.59 0.64 0.65 0.68
0.05 0.07 0.12 0.13 0.13 0.13 0.14 0.14 0.15 0.15 0.17 0.15 0.15 0.16 0.18 0.19 0.19 0.22 0.28 0.35 0.35 0.30 0.29 0.31 0.34 0.40 0.42 0.41 0.41 0.43 0.44 0.43 0.48 0.47 0.50 0.52 0.50 0.51 0.52 0.55 0.60 0.66 0.70
0.05 0.07 0.10 0.12 0.13 0.14 0.15 0.16 0.15 0.14 0.15 0.14 0.13 0.14 0.16 0.18 0.18 0.17 0.19 0.27 0.29 0.27 0.29 0.32 0.36 0.40 0.42 0.39 0.34 0.34 0.39 0.45 0.51 0.56 0.52 0.50 0.50 0.51 0.57 0.60 0.60 0.64 0.68
0.06 0.06 0.07 0.10 0.12 0.13 0.16 0.17 0.19 0.18 0.17 0.15 0.15 0.16 0.15 0.17 0.16 0.15 0.17 0.20 0.20 0.23 0.23 0.23 0.25 0.23 0.22 0.22 0.22 0.23 0.28 0.35 0.42 0.56 0.63 0.66 0.70 0.72 0.72 0.70 0.62 0.58 0.59